TimeCST,TemperatureF,Dew PointF,Humidity,Sea Level PressureIn,VisibilityMPH,Wind Direction,Wind SpeedMPH,Gust SpeedMPH,PrecipitationIn,Events,Conditions,WindDirDegrees,DateUTC
12:53 AM,18.0,15.1,88,30.35,10.0,SW,5.8,-,N/A,,Partly Cloudy,230,2013-01-03 06:53:00
1:53 AM,16.0,12.9,88,30.36,10.0,South,3.5,-,N/A,,Mostly Cloudy,180,2013-01-03 07:53:00
2:53 AM,12.9,10.0,88,30.38,10.0,Calm,Calm,-,N/A,,Partly Cloudy,0,2013-01-03 08:53:00
3:53 AM,18.0,14.0,84,30.38,10.0,NNW,4.6,-,N/A,,Overcast,330,2013-01-03 09:53:00
4:53 AM,25.0,21.0,85,30.39,10.0,NW,10.4,-,N/A,,Overcast,310,2013-01-03 10:53:00
5:53 AM,26.6,19.4,74,30.36,10.0,NW,9.2,-,N/A,,Overcast,320,2013-01-03 11:53:00
6:53 AM,25.0,19.0,78,30.43,10.0,WNW,8.1,-,N/A,,Overcast,300,2013-01-03 12:53:00
7:53 AM,25.0,19.0,78,30.44,10.0,WNW,8.1,-,N/A,,Overcast,290,2013-01-03 13:53:00
8:53 AM,23.0,17.1,78,30.46,10.0,NW,5.8,-,N/A,,Scattered Clouds,310,2013-01-03 14:53:00
9:53 AM,26.1,18.0,71,30.50,10.0,WNW,9.2,-,N/A,,Clear,290,2013-01-03 15:53:00
10:53 AM,30.9,21.0,67,30.51,10.0,WNW,8.1,-,0.01,,Overcast,290,2013-01-03 16:53:00
11:53 AM,28.9,21.9,75,30.49,10.0,NW,8.1,-,0.03,,Overcast,320,2013-01-03 17:53:00
12:53 PM,30.0,21.9,72,30.47,10.0,NW,8.1,-,0.01,,Overcast,310,2013-01-03 18:53:00
1:53 PM,30.0,23.0,75,30.45,10.0,NW,9.2,-,0.01,,Overcast,320,2013-01-03 19:53:00
2:53 PM,30.9,23.0,72,30.45,10.0,NNW,3.5,-,0.02,,Overcast,330,2013-01-03 20:53:00
3:53 PM,32.0,24.1,73,30.45,10.0,Calm,Calm,-,0.02,,Scattered Clouds,0,2013-01-03 21:53:00
4:53 PM,27.0,19.9,75,30.45,10.0,South,3.5,-,N/A,,Clear,190,2013-01-03 22:53:00
5:53 PM,21.0,16.0,81,30.47,10.0,Calm,Calm,-,N/A,,Clear,0,2013-01-03 23:53:00
6:53 PM,19.9,17.1,89,30.47,9.0,South,4.6,-,N/A,,Clear,180,2013-01-04 00:53:00
7:42 PM,17.6,14.0,86,30.41,1.8,South,4.6,-,N/A,,Clear,190,2013-01-04 01:42:00
7:49 PM,15.8,12.2,86,30.41,10.0,South,6.9,-,N/A,,Clear,190,2013-01-04 01:49:00
7:53 PM,18.0,14.0,84,30.46,10.0,South,5.8,-,N/A,,Clear,190,2013-01-04 01:53:00
8:53 PM,17.1,14.0,88,30.46,10.0,South,5.8,-,N/A,,Clear,190,2013-01-04 02:53:00
9:53 PM,12.0,10.0,92,30.46,8.0,SSW,5.8,-,N/A,,Clear,210,2013-01-04 03:53:00
10:53 PM,10.9,8.1,88,30.45,6.0,South,4.6,-,N/A,,Clear,190,2013-01-04 04:53:00
11:53 PM,8.1,5.0,87,30.45,9.0,SSW,6.9,-,N/A,,Clear,200,2013-01-04 05:53:00